TimeEDT,TemperatureF,Dew PointF,Humidity,Sea Level PressureIn,VisibilityMPH,Wind Direction,Wind SpeedMPH,Gust SpeedMPH,PrecipitationIn,Events,Conditions,WindDirDegrees,DateUTC
12:15 AM,71.6,68.0,88,29.97,10.0,WSW,3.5,-,N/A,,Clear,240,2013-05-24 04:15:00
12:35 AM,71.6,66.2,83,29.97,10.0,WSW,3.5,-,N/A,,Clear,240,2013-05-24 04:35:00
12:55 AM,71.6,66.2,83,29.97,10.0,WSW,4.6,-,N/A,,Clear,250,2013-05-24 04:55:00
1:15 AM,73.4,66.2,78,29.97,10.0,West,3.5,-,N/A,,Clear,260,2013-05-24 05:15:00
1:35 AM,71.6,66.2,83,29.96,10.0,WSW,3.5,-,N/A,,Clear,250,2013-05-24 05:35:00
1:55 AM,73.4,66.2,78,29.96,10.0,WSW,3.5,-,N/A,,Clear,250,2013-05-24 05:55:00
2:15 AM,71.6,66.2,83,29.96,10.0,WSW,5.8,-,N/A,,Clear,240,2013-05-24 06:15:00
2:35 AM,71.6,66.2,83,29.95,10.0,WSW,4.6,-,N/A,,Clear,240,2013-05-24 06:35:00
2:55 AM,71.6,66.2,83,29.95,10.0,WSW,3.5,-,N/A,,Clear,240,2013-05-24 06:55:00
3:15 AM,71.6,66.2,83,29.94,10.0,WSW,4.6,-,N/A,,Clear,240,2013-05-24 07:15:00
3:35 AM,71.6,66.2,83,29.94,10.0,WSW,4.6,-,N/A,,Clear,240,2013-05-24 07:35:00
3:55 AM,69.8,66.2,88,29.94,10.0,WSW,3.5,-,N/A,,Clear,250,2013-05-24 07:55:00
4:15 AM,69.8,64.4,83,29.95,10.0,Calm,Calm,-,N/A,,Clear,0,2013-05-24 08:15:00
4:35 AM,69.8,64.4,83,29.95,10.0,Calm,Calm,-,N/A,,Clear,0,2013-05-24 08:35:00
4:55 AM,68.0,64.4,88,29.96,10.0,Calm,Calm,-,N/A,,Clear,0,2013-05-24 08:55:00
5:15 AM,69.8,64.4,83,29.97,10.0,West,3.5,-,N/A,,Clear,270,2013-05-24 09:15:00
5:35 AM,69.8,64.4,83,29.97,10.0,West,4.6,-,N/A,,Clear,280,2013-05-24 09:35:00
5:55 AM,69.8,64.4,83,29.98,10.0,WNW,5.8,-,N/A,,Clear,290,2013-05-24 09:55:00
6:15 AM,69.8,64.4,83,29.98,10.0,WNW,5.8,-,N/A,,Clear,290,2013-05-24 10:15:00
6:35 AM,69.8,64.4,83,29.99,10.0,West,4.6,-,N/A,,Clear,280,2013-05-24 10:35:00
6:55 AM,69.8,64.4,83,30.00,10.0,West,3.5,-,N/A,,Clear,280,2013-05-24 10:55:00
7:15 AM,71.6,66.2,83,30.00,10.0,WNW,4.6,-,N/A,,Clear,290,2013-05-24 11:15:00
7:35 AM,73.4,64.4,73,30.01,10.0,NW,6.9,-,N/A,,Clear,310,2013-05-24 11:35:00
7:55 AM,73.4,66.2,78,30.02,10.0,NW,5.8,-,N/A,,Clear,320,2013-05-24 11:55:00
8:15 AM,73.4,64.4,73,30.02,10.0,NNW,6.9,-,N/A,,Clear,340,2013-05-24 12:15:00
8:35 AM,75.2,64.4,69,30.02,10.0,NNW,6.9,-,N/A,,Clear,340,2013-05-24 12:35:00
8:55 AM,75.2,62.6,65,30.03,10.0,NNW,9.2,-,N/A,,Clear,340,2013-05-24 12:55:00
9:15 AM,77.0,62.6,61,30.03,10.0,North,11.5,-,N/A,,Clear,350,2013-05-24 13:15:00
9:35 AM,78.8,62.6,57,30.04,10.0,North,12.7,16.1,N/A,,Clear,350,2013-05-24 13:35:00
9:55 AM,80.6,62.6,54,30.04,10.0,NNW,11.5,-,N/A,,Clear,340,2013-05-24 13:55:00
10:15 AM,80.6,62.6,54,30.04,10.0,NW,9.2,17.3,N/A,,Clear,320,2013-05-24 14:15:00
10:35 AM,80.6,60.8,51,30.04,10.0,NNW,12.7,19.6,N/A,,Clear,340,2013-05-24 14:35:00
10:55 AM,82.4,62.6,51,30.05,10.0,NW,12.7,16.1,N/A,,Clear,310,2013-05-24 14:55:00
11:15 AM,82.4,60.8,48,30.05,10.0,NW,13.8,19.6,N/A,,Clear,320,2013-05-24 15:15:00
11:35 AM,82.4,60.8,48,30.05,10.0,NW,16.1,-,N/A,,Clear,310,2013-05-24 15:35:00
11:55 AM,84.2,60.8,45,30.05,10.0,North,10.4,20.7,N/A,,Clear,350,2013-05-24 15:55:00
12:15 PM,84.2,60.8,45,30.06,10.0,NNW,11.5,18.4,N/A,,Clear,340,2013-05-24 16:15:00
12:35 PM,84.2,60.8,45,30.05,10.0,NNW,15.0,19.6,N/A,,Clear,340,2013-05-24 16:35:00
12:55 PM,84.2,60.8,45,30.05,10.0,NNW,10.4,-,N/A,,Clear,330,2013-05-24 16:55:00
1:15 PM,84.2,60.8,45,30.04,10.0,NNW,15.0,20.7,N/A,,Clear,340,2013-05-24 17:15:00
1:35 PM,86.0,62.6,45,30.04,10.0,North,10.4,-,N/A,,Clear,360,2013-05-24 17:35:00
1:55 PM,86.0,60.8,43,30.04,10.0,NNW,12.7,19.6,N/A,,Clear,340,2013-05-24 17:55:00
2:15 PM,86.0,60.8,43,30.04,10.0,NW,13.8,19.6,N/A,,Clear,320,2013-05-24 18:15:00
2:35 PM,87.8,60.8,40,30.04,10.0,NNW,11.5,20.7,N/A,,Clear,330,2013-05-24 18:35:00
2:55 PM,87.8,60.8,40,30.04,10.0,NW,9.2,19.6,N/A,,Clear,320,2013-05-24 18:55:00
3:15 PM,89.6,60.8,38,30.04,10.0,NNW,16.1,20.7,N/A,,Clear,340,2013-05-24 19:15:00
3:35 PM,87.8,59.0,38,30.04,10.0,NW,13.8,-,N/A,,Clear,310,2013-05-24 19:35:00
3:55 PM,87.8,59.0,38,30.04,10.0,NNW,9.2,19.6,N/A,,Clear,340,2013-05-24 19:55:00
4:15 PM,89.6,60.8,38,30.03,10.0,North,9.2,-,N/A,,Clear,350,2013-05-24 20:15:00
4:35 PM,87.8,59.0,38,30.04,10.0,NW,12.7,18.4,N/A,,Clear,320,2013-05-24 20:35:00
4:55 PM,89.6,59.0,36,30.04,10.0,NW,13.8,17.3,N/A,,Clear,310,2013-05-24 20:55:00
5:15 PM,89.6,57.2,33,30.04,10.0,NNW,10.4,18.4,N/A,,Clear,340,2013-05-24 21:15:00
5:35 PM,87.8,59.0,38,30.04,10.0,NNW,15.0,19.6,N/A,,Clear,340,2013-05-24 21:35:00
5:55 PM,87.8,59.0,38,30.03,10.0,North,10.4,-,N/A,,Clear,360,2013-05-24 21:55:00
6:15 PM,87.8,59.0,38,30.04,10.0,NNW,11.5,-,N/A,,Clear,340,2013-05-24 22:15:00
6:35 PM,87.8,59.0,38,30.04,10.0,North,10.4,-,N/A,,Clear,350,2013-05-24 22:35:00
6:55 PM,86.0,59.0,40,30.05,10.0,NNW,10.4,-,N/A,,Clear,340,2013-05-24 22:55:00
7:15 PM,84.2,57.2,40,30.05,10.0,North,8.1,-,N/A,,Clear,360,2013-05-24 23:15:00
7:35 PM,84.2,59.0,42,30.06,10.0,North,8.1,-,N/A,,Clear,360,2013-05-24 23:35:00
7:55 PM,82.4,59.0,45,30.06,10.0,North,4.6,-,N/A,,Clear,350,2013-05-24 23:55:00
8:15 PM,78.8,59.0,51,30.07,10.0,North,4.6,-,N/A,,Clear,10,2013-05-25 00:15:00
8:35 PM,78.8,57.2,47,30.08,10.0,NNE,3.5,-,N/A,,Clear,30,2013-05-25 00:35:00
8:55 PM,75.2,60.8,61,30.08,10.0,NNE,3.5,-,N/A,,Clear,20,2013-05-25 00:55:00
9:15 PM,73.4,60.8,65,30.09,10.0,North,5.8,-,N/A,,Clear,360,2013-05-25 01:15:00
9:35 PM,73.4,59.0,61,30.10,10.0,North,3.5,-,N/A,,Clear,10,2013-05-25 01:35:00
9:55 PM,73.4,59.0,61,30.11,10.0,North,4.6,-,N/A,,Clear,360,2013-05-25 01:55:00
10:15 PM,71.6,59.0,64,30.12,10.0,NNE,3.5,-,N/A,,Clear,30,2013-05-25 02:15:00
10:35 PM,71.6,59.0,64,30.12,10.0,North,4.6,-,N/A,,Clear,360,2013-05-25 02:35:00
10:55 PM,71.6,57.2,60,30.13,10.0,North,5.8,-,N/A,,Clear,360,2013-05-25 02:55:00
11:15 PM,71.6,57.2,60,30.14,10.0,North,8.1,-,N/A,,Clear,360,2013-05-25 03:15:00
11:35 PM,71.6,57.2,60,30.14,10.0,North,6.9,-,N/A,,Clear,10,2013-05-25 03:35:00
11:55 PM,71.6,57.2,60,30.14,10.0,North,6.9,-,N/A,,Clear,10,2013-05-25 03:55:00